Location: Cactus School
(34.5700°N, 118.0931°W)
Time: 17:52:41
(UTC-08:00)

Tiros 1 - Pass Details

Date: 25 November 2019
Orbit: 630 x 664 km, 48.4° (Epoch: 08 December)

Event Time Altitude Azimuth Distance (km) Brightness Sun altitude
Rises 09:30:12 0° 192° (SSW) 2,920 11.1 26.7°
Reaches altitude 10° 09:33:09 10° 173° (S) 2,010 10.9 27.0°
Maximum altitude 09:36:16 18° 130° (SE) 1,547 10.9 27.4°
Drops below altitude 10° 09:39:23 10° 87° (E) 2,008 10.2 27.7°
Sets 09:42:19 0° 69° (ENE) 2,916 10.6 28.0°
